BERGEN / FLESLAND current weather conditions

sailwx.info

Air temperature 1.0° C
Dewpoint -0.0° C

Last reported at 2016-Feb-10 20:20 UTC.
Time now 2016-Feb-10 22:10 UTC

Location: N 60°17' E 005°14'.
View on Google Maps.

See reports from other nearby stations

  
Tides and Currents Weather Stations Pressure Air Temp Water Temp Dewpoint Dewpoint Depression Visibility Wind Speed Wind Dir Waves Ship Positions
date/time (UTC)wind fromknots sea level pressurealtimeterstation pressurevisibilityair tempwater tempwave heightnotes
2016-Feb-10 21:20 -0.0
2016-Feb-10 20:50 -0.0
2016-Feb-10 20:20 1.0
2016-Feb-10 19:50 -0.0
2016-Feb-10 19:20 040 3 2.0
2016-Feb-10 18:50 060 3 5.4 2.0
2016-Feb-10 18:20 060 4 5.4 2.0
2016-Feb-10 17:50 050 4 5.4 3.0
2016-Feb-10 17:20 040 3 5.4 3.0
2016-Feb-10 16:50 360 5 5.4 4.0
2016-Feb-10 16:20 340 5 5.4 4.0
2016-Feb-10 15:50 340 5 5.4 5.0
2016-Feb-10 15:20 340 6 5.4 5.0
2016-Feb-10 14:50 340 7 5.4 5.0
2016-Feb-10 14:20 330 6 5.4 5.0
2016-Feb-10 13:50 330 4 5.4 6.0
2016-Feb-10 13:20 330 4 5.4 5.0
2016-Feb-10 12:50 5.4 5.0
2016-Feb-10 12:20 5.4 4.0
2016-Feb-10 11:50 340 1 5.4 4.0
2016-Feb-10 11:20 5.4 4.0
2016-Feb-10 10:50 5.4 3.0
2016-Feb-10 10:20 270 1 5.4 3.0
2016-Feb-10 09:50 5.4 1.0
2016-Feb-10 09:20 5.4 1.0
2016-Feb-10 08:50 5.4 1.0
2016-Feb-10 08:20 5.4-0.0
2016-Feb-10 07:50 5.4-0.0
2016-Feb-10 07:20 5.4-0.0
2016-Feb-10 06:50 5.4-0.0
2016-Feb-10 06:20 040 3 5.4 1.0
2016-Feb-10 05:50 050 5 5.4 1.0
2016-Feb-10 05:20 040 5 5.4 1.0
2016-Feb-10 04:50 5.4 1.0
2016-Feb-10 03:50 5.4-0.0
2016-Feb-10 02:50 040 4 5.4 1.0
2016-Feb-10 01:50 360 3 5.4 2.0
2016-Feb-10 00:50 040 2 5.4 2.0
2016-Feb-09 23:50 310 2 5.4 3.0
2016-Feb-09 23:20 110 4 5.4 3.0
2016-Feb-09 22:50 110 3 5.4 3.0
2016-Feb-09 22:20 5.4 3.0
2016-Feb-09 21:50 130 5 5.4 4.0
2016-Feb-09 21:20 130 6 5.4 4.0
2016-Feb-09 20:50 120 6 5.4 4.0
2016-Feb-09 20:20 130 6 5.4 4.0
2016-Feb-09 19:50 130 8 5.4 4.0
2016-Feb-09 19:20 130 8 5.4 4.0
2016-Feb-09 18:50 130 9 5.4 4.0 Showers in the vicinity.
2016-Feb-09 18:20 130 8 5.4 4.0 Showers in the vicinity.
2016-Feb-09 17:50 140 9 5.4 4.0 Showers in the vicinity.
2016-Feb-09 17:20 140 8 5.4 4.0 Showers in the vicinity.
2016-Feb-09 16:50 140 7 5.4 4.0 Light rain showers.
2016-Feb-09 16:20 5.4 4.0 Light rain showers.
2016-Feb-09 15:50 130 5 5.4 4.0 Light rain showers.
2016-Feb-09 15:20 130 4 5.4 4.0 Light rain showers.
2016-Feb-09 14:50 190 7 5.4 4.0 Light rain showers.
2016-Feb-09 14:20 160 8 5.4 5.0 Showers in the vicinity.
2016-Feb-09 13:50 170 11 5.4 5.0 Showers in the vicinity.
2016-Feb-09 13:20 180 9 5.4 5.0 Showers in the vicinity.
2016-Feb-09 12:50 190 12 5.4 5.0 Showers in the vicinity.
2016-Feb-09 12:20 170 11 5.4 6.0
2016-Feb-09 11:50 150 11 5.4 5.0 Light rain showers.
2016-Feb-09 11:20 150 11 5.4 5.0 Showers in the vicinity.
2016-Feb-09 10:50 170 15 5.4 5.0 Showers in the vicinity.
2016-Feb-09 10:20 110 7 5.4 4.0 Showers in the vicinity.
2016-Feb-09 09:50 150 12 5.4 4.0 Light rain showers.
2016-Feb-09 09:20 160 13 5.4 4.0 Showers in the vicinity.
2016-Feb-09 08:50 200 15 5.4 4.0 Light rain showers.
2016-Feb-09 08:20 160 16 5.4 4.0 Showers in the vicinity.
2016-Feb-09 07:50 160 16 5.4 5.0 Light rain showers.
2016-Feb-09 07:20 150 12 5.4 4.0 Light rain showers.
2016-Feb-09 06:50 150 15 5.4 5.0 Rain showers.
2016-Feb-09 06:20 170 14 5.4 5.0 Showers in the vicinity.
2016-Feb-09 05:50 150 11 4.9 4.0 Light rain showers.
2016-Feb-09 05:20 150 10 5.4 5.0 Light rain showers.
2016-Feb-09 04:50 160 13 5.4 4.0
2016-Feb-09 03:50 140 10 5.4 4.0
2016-Feb-09 02:50 140 12 5.4 4.0 Light rain showers.
2016-Feb-09 01:50 140 11 5.4 4.0 Light drizzle.
2016-Feb-09 00:50 140 10 4.3 4.0 Light rain drizzle.
2016-Feb-08 23:50 130 11 5.4 4.0 Light drizzle.
2016-Feb-08 22:50 130 10 5.4 4.0
2016-Feb-08 22:20 140 10 5.4 4.0